SQ7FJB-10 Weather Reports


time (UTC)temp
C
wind
direction
speed
KPH
gust
KPH
rain 1hr
cm
rain 24hr
cm
rain mn
cm
humidity
%
barometer
mb
20260504001038 8 162 0.0 0.0 0.00 0.00 0.00 68 1322.4
20260503234026 9 198 0.0 0.0 0.00 0.00 0.00 70 1322.5
20260503231025 10 162 0.0 0.0 0.00 0.00 0.00 68 1322.7
20260503224014 10 180 0.0 0.0 0.00 0.00 0.00 68 1322.6
20260503221013 10 216 0.0 0.0 0.00 0.00 0.00 64 1322.7
20260503214013 11 174 0.0 0.0 0.00 0.00 0.00 63 1322.7
20260503211013 11 174 0.0 0.0 0.00 0.00 0.00 63 1322.6
20260503204001 12 166 0.0 0.0 0.00 0.00 0.00 59 1322.6
20260503200948 13 166 0.0 0.0 0.00 0.00 0.00 55 1322.5
20260503193936 14 186 0.0 0.0 0.00 0.00 0.00 53 1322.6
20260503190923 15 186 0.0 0.0 0.00 0.00 0.00 51 1322.5
20260503183923 16 204 0.0 0.0 0.00 0.00 0.00 49 1322.4
20260503180923 17 186 3.2 3.2 0.00 0.00 0.00 46 1322.2
20260503173912 20 166 3.2 3.2 0.00 0.00 0.00 40 1322.1
20260503170858 21 164 3.2 3.2 0.00 0.00 0.00 38 1322.0
20260503150820 25 197 3.2 3.2 0.00 0.00 0.00 28 1322.5
20260503130755 25 145 3.2 3.2 0.00 0.00 0.00 26 1323.9
20260503110717 24 125 8.0 9.7 0.00 0.00 0.00 29 1325.0
20260503080602 21 164 9.7 9.7 0.00 0.00 0.00 36 1326.3
20260503070602 19 141 6.4 6.4 0.00 0.00 0.00 42 1326.4
20260503053513 12 161 0.0 0.0 0.00 0.00 0.00 57 1326.6
20260503050512 10 126 0.0 0.0 0.00 0.00 0.00 66 1326.8
20260503043500 7 142 0.0 0.0 0.00 0.00 0.00 71 1326.8
20260503040447 5 162 0.0 0.0 0.00 0.00 0.00 84 1326.7
20260503033447 4 174 0.0 0.0 0.00 0.00 0.00 83 1326.8
20260503030447 5 198 0.0 0.0 0.00 0.00 0.00 84 1326.7
20260503023434 5 180 0.0 0.0 0.00 0.00 0.00 82 1326.8
20260503020422 5 156 0.0 0.0 0.00 0.00 0.00 82 1326.9
20260503013410 5 180 0.0 0.0 0.00 0.00 0.00 82 1327.0
20260503010357 6 168 0.0 0.0 0.00 0.00 0.00 79 1326.9
20260503003345 6 186 0.0 0.0 0.00 0.00 0.00 79 1327.0